Greenville, AL

11:14 AM CST on February 26, 2017 (GMT -0600)
Greenville Municipal

Weather History for KPRN - February, 2011

Change the Weather History Date:

Thursday, February 3, 2011

  Actual Average Record
Temperature  
Mean Temperature 34 °F -  
Max Temperature 37 °F 59 °F 82 °F (1957)
Min Temperature 32 °F 37 °F 11 °F (1951)
Degree Days  
Heating Degree Days 30    
Moisture  
Dew Point 28 °F    
Average Humidity 76    
Maximum Humidity 97    
Minimum Humidity 57    
Precipitation  
Precipitation 0.24 in - - ()
Sea Level Pressure  
Sea Level Pressure 30.32 in    
Wind  
Wind Speed 9 mph (NNE)    
Max Wind Speed 13 mph    
Max Gust Speed 18 mph    
Visibility 9 miles    
Events Rain    
Averages and records for this station are not official NWS values.
T = Trace of Precipitation, MM = Missing Value Source: NWS Daily Summary

Daily Weather History Graph

Daily Weather History Graph

Search for Another Location

Airport or City:

Trip Planner

Search our weather history database for the weather conditions in past years. The results will help you decide how hot, cold, wet, or windy it might be!

Date:

Astronomy

Feb. 03, 2011 Rise Set
Actual Time 6:38 AM CST 5:22 PM CST
Civil Twilight 6:13 AM CST 5:47 PM CST
Nautical Twilight 5:44 AM CST 6:16 PM CST
Astronomical Twilight 5:15 AM CST 6:45 PM CST
Moon 6:43 AM CST (2/3) 6:10 PM CST (2/3)
Length of Visible Light 11h 34m
Length of Day
10h 43m
New Moon, 0% of the Moon is Illuminated
Feb 3
New Moon
Feb 11
First Quarter
Feb 18
Full
Feb 24
Last Quarter
Mar 4
New

Hourly Weather History & Observations

Time (CST) Temp. Windchill Dew Point Humidity Pressure Visibility Wind Dir Wind Speed Gust Speed Precip Events Conditions
12:56 AM 36.0 °F 27.5 °F 21.9 °F 57% 30.29 in 10.0 mi North 12.7 mph - N/A   Clear
1:56 AM 35.1 °F 28.6 °F 21.9 °F 59% 30.30 in 10.0 mi North 8.1 mph 18.4 mph N/A   Clear
2:56 AM 34.0 °F 26.0 °F 24.1 °F 67% 30.32 in 10.0 mi North 10.4 mph - 0.00 in   Clear
3:56 AM 33.1 °F 26.1 °F 25.0 °F 72% 30.34 in 10.0 mi North 8.1 mph - 0.00 in   Clear
4:56 AM 34.0 °F 28.0 °F 23.0 °F 64% 30.36 in 10.0 mi North 6.9 mph - N/A   Scattered Clouds
5:56 AM 33.1 °F 26.9 °F 21.9 °F 64% 30.33 in 10.0 mi NNE 6.9 mph - N/A   Clear
6:56 AM 33.1 °F 26.9 °F 23.0 °F 66% 30.34 in 10.0 mi NNE 6.9 mph - N/A   Clear
7:56 AM 33.1 °F 24.9 °F 25.0 °F 72% 30.37 in 10.0 mi North 10.4 mph - 0.00 in Rain Light Rain
8:56 AM 32.0 °F 24.2 °F 27.0 °F 82% 30.38 in 10.0 mi North 9.2 mph - 0.01 in   Clear
9:56 AM 32.0 °F 23.6 °F 27.0 °F 82% 30.40 in 10.0 mi NNW 10.4 mph - 0.01 in   Clear
10:56 AM 33.1 °F 23.9 °F 27.0 °F 78% 30.38 in 10.0 mi North 12.7 mph - 0.01 in   Clear
11:56 AM 34.0 °F 26.6 °F 27.0 °F 75% 30.35 in 10.0 mi North 9.2 mph - 0.01 in   Clear
12:56 PM 35.1 °F 27.9 °F 27.0 °F 72% 30.33 in 10.0 mi North 9.2 mph - N/A   Scattered Clouds
1:56 PM 36.0 °F 28.0 °F 25.0 °F 64% 30.30 in 10.0 mi North 11.5 mph - N/A   Clear
2:56 PM 36.0 °F 28.0 °F 25.0 °F 64% 30.31 in 10.0 mi North 11.5 mph - N/A   Clear
3:56 PM 37.0 °F 29.8 °F 27.0 °F 67% 30.30 in 10.0 mi North 10.4 mph - N/A   Partly Cloudy
4:56 PM 36.0 °F 27.5 °F 27.0 °F 70% 30.31 in 10.0 mi North 12.7 mph - N/A   Clear
5:56 PM 35.1 °F 27.9 °F 28.0 °F 76% 30.30 in 10.0 mi North 9.2 mph 18.4 mph N/A   Clear
6:56 PM 35.1 °F 31.0 °F 28.0 °F 76% 30.33 in 10.0 mi North 4.6 mph - N/A   Clear
7:56 PM 35.1 °F 29.3 °F 28.9 °F 78% 30.33 in 10.0 mi ENE 6.9 mph - N/A   Clear
8:56 PM 36.0 °F 33.3 °F 30.0 °F 79% 30.31 in 10.0 mi ENE 3.5 mph - 0.00 in   Clear
9:28 PM 36.0 °F 31.1 °F 32.0 °F 86% 30.28 in 10.0 mi ENE 5.8 mph - 0.00 in Rain Light Rain
9:56 PM 36.0 °F 32.1 °F 33.1 °F 89% 30.28 in 8.0 mi ENE 4.6 mph - 0.02 in Rain Rain
10:06 PM 36.0 °F 32.1 °F 34.0 °F 93% 30.27 in 6.0 mi NE 4.6 mph - 0.02 in Rain Light Rain
10:56 PM 36.0 °F 32.1 °F 35.1 °F 97% 30.26 in 7.0 mi ENE 4.6 mph - 0.11 in Rain Light Rain
11:42 PM 36.0 °F 33.3 °F 35.1 °F 97% 30.25 in 5.0 mi NE 3.5 mph - 0.05 in Rain Light Rain
11:56 PM 37.0 °F 34.5 °F 35.1 °F 93% 30.25 in 6.0 mi ENE 3.5 mph - 0.07 in Rain Light Rain